Location: Hastringsfeld
(50.9620°N, 10.4787°E)
Time: 11:51:53
(UTC+00:00)

ADEOS II - Pass Details

Date: 26 September 2023
Orbit: 797 x 798 km, 98.7° (Epoch: 10 December)

Event Time Altitude Azimuth Distance (km) Brightness Sun altitude
Rises 00:40:28 0° 22° (NNE) 3,319 6.3 -36.5°
Reaches altitude 10° 00:43:07 10° 34° (NE) 2,384 5.3 -36.3°
Enters shadow 00:46:21 26° 68° (ENE) 1,540 3.9 -36.1°
